Location: Bouillancy
(49.1149°N, 2.9308°E)
Time: 23:18:41
(UTC+00:00)

HJ-1C - Pass Details

Date: 30 September 2020
Orbit: 432 x 443 km, 97.1° (Epoch: 25 October)

Event Time Altitude Azimuth Distance (km) Brightness Sun altitude
Rises 18:25:56 0° 156° (SSE) 2,403 6.8 -10.2°
Reaches altitude 10° 18:27:57 10° 152° (SSE) 1,542 5.8 -10.6°
Maximum altitude 18:31:11 55° 74° (ENE) 531 3.4 -11.1°
Drops below altitude 10° 18:34:28 10° 355° (N) 1,562 6.3 -11.6°
Sets 18:36:32 0° 351° (N) 2,439 7.4 -12.0°
